Location: Makakahi
(40.6833°S, 175.6000°E)
Time: 23:58:43
(UTC+00:00)

FENGYUN 1C DEB - Pass Details

Date: 08 December 2024
Orbit: 812 x 877 km, 98.8° (Epoch: 19 January)

Event Time Altitude Azimuth Distance (km) Brightness Sun altitude
Rises 08:20:50 0° 158° (SSE) 3,380 ? -7.3°
Reaches altitude 10° 08:23:23 10° 148° (SSE) 2,446 ? -7.6°
Maximum altitude 08:28:19 35° 83° (E) 1,314 ? -8.4°
Drops below altitude 10° 08:33:16 10° 17° (NNE) 2,449 ? -9.1°
Enters shadow 08:34:41 - 11° (NNE) 2,962 ? -9.3°
